TimeCDT,TemperatureF,Dew PointF,Humidity,Sea Level PressureIn,VisibilityMPH,Wind Direction,Wind SpeedMPH,Gust SpeedMPH,PrecipitationIn,Events,Conditions,WindDirDegrees,DateUTC
12:53 AM,55.9,41.0,57,29.89,10.0,NW,8.1,-,N/A,,Clear,320,2012-10-02 05:53:00
1:53 AM,55.0,39.9,57,29.90,10.0,NNW,9.2,-,N/A,,Clear,330,2012-10-02 06:53:00
2:53 AM,55.0,37.9,53,29.89,10.0,NNW,9.2,-,N/A,,Clear,340,2012-10-02 07:53:00
3:53 AM,52.0,37.9,59,29.89,10.0,NW,8.1,-,N/A,,Clear,320,2012-10-02 08:53:00
4:53 AM,51.1,37.9,61,29.91,10.0,NW,8.1,-,N/A,,Clear,320,2012-10-02 09:53:00
5:53 AM,48.9,37.9,66,29.92,10.0,NW,8.1,-,N/A,,Clear,320,2012-10-02 10:53:00
6:53 AM,46.9,37.9,71,29.92,10.0,NW,5.8,-,N/A,,Clear,310,2012-10-02 11:53:00
7:53 AM,48.0,39.0,71,29.94,10.0,NW,4.6,-,N/A,,Clear,310,2012-10-02 12:53:00
8:53 AM,52.0,39.0,61,29.94,10.0,NW,8.1,-,N/A,,Clear,320,2012-10-02 13:53:00
9:53 AM,59.0,41.0,51,29.94,10.0,NNW,8.1,-,N/A,,Clear,340,2012-10-02 14:53:00
10:53 AM,63.0,43.0,48,29.94,10.0,Variable,5.8,-,N/A,,Clear,0,2012-10-02 15:53:00
11:53 AM,68.0,46.0,45,29.93,10.0,North,5.8,-,N/A,,Clear,360,2012-10-02 16:53:00
12:53 PM,72.0,46.9,41,29.92,10.0,NNW,10.4,-,N/A,,Clear,340,2012-10-02 17:53:00
1:53 PM,73.9,45.0,35,29.89,10.0,Variable,5.8,17.3,N/A,,Partly Cloudy,0,2012-10-02 18:53:00
2:53 PM,75.0,44.1,33,29.87,10.0,North,8.1,-,N/A,,Partly Cloudy,360,2012-10-02 19:53:00
3:53 PM,75.0,42.1,31,29.86,10.0,NW,4.6,-,N/A,,Clear,320,2012-10-02 20:53:00
4:53 PM,75.0,41.0,29,29.85,10.0,North,8.1,-,N/A,,Clear,10,2012-10-02 21:53:00
5:53 PM,73.9,42.1,32,29.86,10.0,NNW,3.5,-,N/A,,Clear,340,2012-10-02 22:53:00
6:53 PM,69.8,41.0,35,29.88,10.0,WNW,3.5,-,N/A,,Clear,300,2012-10-02 23:53:00
7:53 PM,68.0,41.0,37,29.88,10.0,West,3.5,-,N/A,,Clear,270,2012-10-03 00:53:00
8:53 PM,66.0,39.9,38,29.89,10.0,WNW,5.8,-,N/A,,Clear,290,2012-10-03 01:53:00
9:53 PM,64.9,39.9,40,29.90,10.0,WNW,4.6,-,N/A,,Clear,290,2012-10-03 02:53:00
10:53 PM,64.9,39.0,39,29.89,10.0,WNW,3.5,-,N/A,,Clear,300,2012-10-03 03:53:00
11:53 PM,61.0,41.0,48,29.89,10.0,West,3.5,-,N/A,,Clear,270,2012-10-03 04:53:00